TimeEDT,TemperatureF,Dew PointF,Humidity,Sea Level PressureIn,VisibilityMPH,Wind Direction,Wind SpeedMPH,Gust SpeedMPH,PrecipitationIn,Events,Conditions,WindDirDegrees,DateUTC
12:52 AM,48.9,46.0,90,30.16,10.0,WSW,3.5,-,N/A,,Clear,240,2013-09-19 04:52:00
1:52 AM,50.0,46.0,86,30.16,10.0,Calm,Calm,-,N/A,,Clear,0,2013-09-19 05:52:00
2:52 AM,46.9,44.1,90,30.14,10.0,Calm,Calm,-,N/A,,Clear,0,2013-09-19 06:52:00
3:52 AM,46.9,44.1,90,30.13,10.0,Calm,Calm,-,N/A,,Clear,0,2013-09-19 07:52:00
4:52 AM,46.9,44.1,90,30.13,10.0,Calm,Calm,-,N/A,,Clear,0,2013-09-19 08:52:00
5:52 AM,48.0,43.0,83,30.14,10.0,Calm,Calm,-,N/A,,Clear,0,2013-09-19 09:52:00
6:52 AM,46.0,43.0,89,30.14,10.0,Calm,Calm,-,N/A,,Clear,0,2013-09-19 10:52:00
7:52 AM,55.0,50.0,83,30.14,10.0,West,3.5,-,N/A,,Clear,270,2013-09-19 11:52:00
8:52 AM,60.1,48.0,64,30.14,10.0,West,5.8,-,N/A,,Clear,270,2013-09-19 12:52:00
9:52 AM,64.9,48.9,56,30.14,10.0,Variable,3.5,-,N/A,,Clear,0,2013-09-19 13:52:00
10:52 AM,70.0,50.0,49,30.13,10.0,Calm,Calm,-,N/A,,Clear,0,2013-09-19 14:52:00
11:52 AM,73.0,48.0,41,30.12,10.0,WSW,3.5,-,N/A,,Clear,250,2013-09-19 15:52:00
12:52 PM,75.0,48.9,40,30.11,10.0,Calm,Calm,-,N/A,,Clear,0,2013-09-19 16:52:00
1:52 PM,79.0,48.0,34,30.09,10.0,NW,4.6,-,N/A,,Clear,320,2013-09-19 17:52:00
2:52 PM,78.1,51.1,39,30.07,10.0,SW,8.1,-,N/A,,Clear,230,2013-09-19 18:52:00
3:52 PM,75.9,50.0,40,30.05,10.0,SSW,4.6,-,N/A,,Clear,200,2013-09-19 19:52:00
4:52 PM,77.0,52.0,42,30.05,10.0,SW,4.6,-,N/A,,Clear,230,2013-09-19 20:52:00
5:52 PM,73.9,53.1,48,30.05,10.0,WSW,6.9,-,N/A,,Clear,240,2013-09-19 21:52:00
6:52 PM,69.1,54.0,58,30.05,10.0,SSW,5.8,-,N/A,,Clear,210,2013-09-19 22:52:00
7:52 PM,64.0,53.1,67,30.07,10.0,SSW,5.8,-,N/A,,Clear,210,2013-09-19 23:52:00
8:52 PM,57.9,52.0,81,30.09,10.0,Calm,Calm,-,N/A,,Clear,0,2013-09-20 00:52:00
9:52 PM,55.9,50.0,80,30.08,10.0,Calm,Calm,-,N/A,,Clear,0,2013-09-20 01:52:00
10:52 PM,54.0,50.0,86,30.08,10.0,Calm,Calm,-,N/A,,Clear,0,2013-09-20 02:52:00
11:52 PM,52.0,46.9,83,30.08,10.0,Calm,Calm,-,N/A,,Clear,0,2013-09-20 03:52:00